Crosby, ND

2:54 PM CDT on July 27, 2016 (GMT -0500)
Crosby

Weather History for KD50 - April, 2013

Change the Weather History Date:

Wednesday, April 10, 2013

  Actual Average (KISN) Record (KISN)
Temperature  
Mean Temperature 18 °F 41 °F  
Max Temperature 30 °F 55 °F 83 °F (1971)
Min Temperature 6 °F 28 °F 9 °F (1997)
Degree Days  
Heating Degree Days 47 24  
Month to date heating degree days 259  
Since 1 July heating degree days 8134  
Cooling Degree Days 0 0  
Month to date cooling degree days 0  
Year to date cooling degree days 0  
Moisture  
Dew Point 16 °F    
Average Humidity 85    
Maximum Humidity 93    
Minimum Humidity 59    
Precipitation  
Precipitation 0.00 in 0.03 in 0.40 in (1965)
Month to date precipitation 0.28  
Year to date precipitation 1.97  
Sea Level Pressure  
Sea Level Pressure 30.21 in    
Wind  
Wind Speed 7 mph (SE)    
Max Wind Speed 16 mph    
Max Gust Speed 18 mph    
Visibility 10 miles    
Events      
T = Trace of Precipitation, MM = Missing Value Source: NWS Daily Summary

Daily Weather History Graph

Daily Weather History Graph

Search for Another Location

Airport or City:

Trip Planner

Search our weather history database for the weather conditions in past years. The results will help you decide how hot, cold, wet, or windy it might be!

Date:

Astronomy

Apr. 10, 2013 Rise Set
Actual Time 7:11 AM CDT 8:38 PM CDT
Civil Twilight 6:38 AM CDT 9:11 PM CDT
Nautical Twilight 5:58 AM CDT 9:51 PM CDT
Astronomical Twilight 5:15 AM CDT 10:34 PM CDT
Moon 7:06 AM CDT (4/10) 9:22 PM CDT (4/10)
Length of Visible Light 14h 32m
Length of Day
13h 26m
New Moon, 0% of the Moon is Illuminated
Apr 10
New Moon
Apr 18
First Quarter
Apr 25
Full
May 2
Last Quarter
May 9
New

Hourly Weather History & Observations

Time (CDT) Temp. Windchill Dew Point Humidity Pressure Visibility Wind Dir Wind Speed Gust Speed Precip Events Conditions
12:15 AM 15.8 °F 4.2 °F 12.2 °F 86% 30.39 in 10.0 mi WNW 9.2 mph - N/A   Clear
12:35 AM 15.8 °F 3.4 °F 12.2 °F 86% 30.38 in 10.0 mi WNW 10.4 mph - N/A   Clear
12:55 AM 15.8 °F 3.4 °F 14.0 °F 93% 30.38 in 10.0 mi WNW 10.4 mph - N/A   Clear
1:15 AM 14.0 °F 1.2 °F 12.2 °F 93% 30.37 in 10.0 mi WNW 10.4 mph - N/A   Clear
1:35 AM 15.8 °F 5.1 °F 14.0 °F 93% 30.38 in 10.0 mi West 8.1 mph - N/A   Clear
1:55 AM 15.8 °F 6.1 °F 14.0 °F 93% 30.39 in 10.0 mi West 6.9 mph - N/A   Clear
2:15 AM 14.0 °F 3.9 °F 12.2 °F 93% 30.39 in 10.0 mi WNW 6.9 mph - N/A   Clear
2:55 AM 14.0 °F 5.1 °F 12.2 °F 93% 30.36 in 10.0 mi WNW 5.8 mph - N/A   Clear
3:15 AM 10.4 °F -0.4 °F 8.6 °F 92% 30.36 in 10.0 mi WNW 6.9 mph - N/A   Clear
3:35 AM 10.4 °F 0.8 °F 8.6 °F 92% 30.34 in 10.0 mi WNW 5.8 mph - N/A   Clear
3:55 AM 10.4 °F -1.5 °F 8.6 °F 92% 30.32 in 10.0 mi NW 8.1 mph - N/A   Clear
4:15 AM 8.6 °F -1.3 °F 6.8 °F 92% 30.30 in 10.0 mi NW 5.8 mph - N/A   Clear
4:35 AM 10.4 °F 2.2 °F 8.6 °F 92% 30.30 in 10.0 mi WNW 4.6 mph - N/A   Clear
4:55 AM 10.4 °F -0.4 °F 8.6 °F 92% 30.30 in 10.0 mi WNW 6.9 mph - N/A   Clear
5:15 AM 8.6 °F -2.6 °F 6.8 °F 92% 30.29 in 10.0 mi WNW 6.9 mph - N/A   Clear
5:35 AM 8.6 °F 2.0 °F 6.8 °F 92% 30.30 in 10.0 mi WSW 3.5 mph - N/A   Clear
5:55 AM 8.6 °F 2.0 °F 5.0 °F 85% 30.30 in 10.0 mi West 3.5 mph - N/A   Clear
6:15 AM 6.8 °F -2.0 °F 5.0 °F 92% 30.30 in 10.0 mi SW 4.6 mph - N/A   Clear
6:35 AM 6.8 °F -4.8 °F 5.0 °F 92% 30.31 in 10.0 mi South 6.9 mph - N/A   Clear
6:55 AM 8.6 °F -1.3 °F 5.0 °F 85% 30.31 in 10.0 mi SSW 5.8 mph - N/A   Clear
7:15 AM 6.8 °F -3.5 °F 5.0 °F 92% 30.31 in 10.0 mi SSW 5.8 mph - N/A   Clear
7:35 AM 6.8 °F -2.0 °F 3.2 °F 85% 30.30 in 10.0 mi SW 4.6 mph - N/A   Clear
7:55 AM 6.8 °F -2.0 °F 5.0 °F 92% 30.30 in 10.0 mi SW 4.6 mph - N/A   Clear
8:15 AM 8.6 °F 2.0 °F 6.8 °F 92% 30.30 in 9.0 mi WSW 3.5 mph - N/A   Clear
8:35 AM 10.4 °F 4.0 °F 6.8 °F 85% 30.30 in 10.0 mi SW 3.5 mph - N/A   Clear
8:55 AM 10.4 °F - 6.8 °F 85% 30.31 in 10.0 mi Calm Calm - N/A   Clear
9:15 AM 12.2 °F - 10.4 °F 92% 30.29 in 10.0 mi Calm Calm - N/A   Clear
9:35 AM 14.0 °F - 12.2 °F 93% 30.29 in 10.0 mi Calm Calm - N/A   Clear
9:55 AM 17.6 °F - 12.2 °F 79% 30.29 in 10.0 mi Calm Calm - N/A   Clear
10:15 AM 15.8 °F - 14.0 °F 93% 30.29 in 10.0 mi Calm Calm - N/A   Clear
10:35 AM 17.6 °F 12.3 °F 14.0 °F 86% 30.29 in 10.0 mi NW 3.5 mph - N/A   Clear
10:55 AM 19.4 °F 14.3 °F 15.8 °F 86% 30.30 in 10.0 mi NW 3.5 mph - N/A   Clear
11:15 AM 19.4 °F - 17.6 °F 93% 30.29 in 10.0 mi Calm Calm - N/A   Clear
11:35 AM 23.0 °F - 17.6 °F 80% 30.29 in 10.0 mi Calm Calm - N/A   Clear
12:15 PM 24.8 °F - 19.4 °F 80% 30.27 in 10.0 mi Calm Calm - N/A   Clear
12:35 PM 24.8 °F 19.1 °F 19.4 °F 80% 30.25 in 10.0 mi East 4.6 mph - N/A   Clear
12:55 PM 26.6 °F 21.2 °F 19.4 °F 74% 30.24 in 10.0 mi SE 4.6 mph - N/A   Clear
1:15 PM 26.6 °F 20.0 °F 19.4 °F 74% 30.24 in 10.0 mi SE 5.8 mph - N/A   Clear
1:35 PM 26.6 °F 21.2 °F 17.6 °F 69% 30.23 in 10.0 mi South 4.6 mph - N/A   Clear
1:55 PM 28.4 °F - 15.8 °F 59% 30.22 in 10.0 mi Calm Calm - N/A   Clear
2:15 PM 28.4 °F 22.2 °F 17.6 °F 64% 30.20 in 10.0 mi SE 5.8 mph - N/A   Clear
2:35 PM 28.4 °F 23.3 °F 17.6 °F 64% 30.19 in 10.0 mi ESE 4.6 mph - N/A   Clear
2:55 PM 28.4 °F 20.4 °F 19.4 °F 69% 30.18 in 10.0 mi SE 8.1 mph - N/A   Clear
3:15 PM 28.4 °F 22.2 °F 19.4 °F 69% 30.18 in 10.0 mi SE 5.8 mph - N/A   Clear
3:35 PM 30.2 °F 24.3 °F 19.4 °F 64% 30.17 in 10.0 mi East 5.8 mph - N/A   Clear
3:55 PM 30.2 °F 23.4 °F 23.0 °F 75% 30.15 in 10.0 mi East 6.9 mph - N/A   Clear
4:15 PM 30.2 °F 22.6 °F 23.0 °F 75% 30.15 in 10.0 mi ENE 8.1 mph - N/A   Clear
4:35 PM 30.2 °F 21.9 °F 24.8 °F 80% 30.14 in 10.0 mi East 9.2 mph - N/A   Clear
4:55 PM 30.2 °F 21.3 °F 24.8 °F 80% 30.13 in 10.0 mi East 10.4 mph - N/A   Clear
5:15 PM 30.2 °F 20.2 °F 24.8 °F 80% 30.11 in 10.0 mi East 12.7 mph - N/A   Clear
5:35 PM 28.4 °F 17.5 °F 24.8 °F 86% 30.11 in 10.0 mi East 13.8 mph - N/A   Clear
5:55 PM 28.4 °F 17.0 °F 24.8 °F 86% 30.10 in 10.0 mi East 15.0 mph - N/A   Clear
6:15 PM 28.4 °F 17.5 °F 26.6 °F 93% 30.10 in 10.0 mi East 13.8 mph - N/A   Clear
6:35 PM 28.4 °F 17.5 °F 26.6 °F 93% 30.09 in 10.0 mi East 13.8 mph - N/A   Clear
6:55 PM 28.4 °F 16.6 °F 24.8 °F 86% 30.08 in 10.0 mi East 16.1 mph - N/A   Clear
7:15 PM 28.4 °F 17.0 °F 24.8 °F 86% 30.07 in 10.0 mi East 15.0 mph - N/A   Clear
7:35 PM 28.4 °F 17.5 °F 24.8 °F 86% 30.07 in 10.0 mi East 13.8 mph - N/A   Clear
7:55 PM 26.6 °F 15.7 °F 24.8 °F 93% 30.06 in 10.0 mi East 12.7 mph - N/A   Clear
8:15 PM 26.6 °F 16.2 °F 23.0 °F 86% 30.04 in 10.0 mi ESE 11.5 mph - N/A   Clear
8:35 PM 26.6 °F 15.7 °F 23.0 °F 86% 30.04 in 10.0 mi ESE 12.7 mph - N/A   Clear
8:55 PM 24.8 °F 15.3 °F 23.0 °F 93% 30.04 in 10.0 mi ESE 9.2 mph - N/A   Clear
9:15 PM 24.8 °F 14.0 °F 21.2 °F 86% 30.03 in 10.0 mi ESE 11.5 mph - N/A   Clear
9:35 PM 24.8 °F 15.3 °F 19.4 °F 80% 30.03 in 10.0 mi ESE 9.2 mph - N/A   Clear
9:55 PM 24.8 °F 13.4 °F 19.4 °F 80% 30.02 in 10.0 mi SE 12.7 mph - N/A   Clear
10:15 PM 24.8 °F 13.4 °F 19.4 °F 80% 30.02 in 10.0 mi SE 12.7 mph - N/A   Clear
10:35 PM 24.8 °F 14.0 °F 19.4 °F 80% 30.01 in 10.0 mi SE 11.5 mph 18.4 mph N/A   Clear
10:55 PM 23.0 °F 11.7 °F 19.4 °F 86% 30.00 in 10.0 mi SE 11.5 mph - N/A   Clear
11:15 PM 23.0 °F 11.7 °F 19.4 °F 86% 30.00 in 10.0 mi SE 11.5 mph - N/A   Clear
11:35 PM 24.8 °F 14.6 °F 19.4 °F 80% 30.00 in 10.0 mi SE 10.4 mph - N/A   Clear
11:55 PM 23.0 °F 14.7 °F 19.4 °F 86% 29.99 in 10.0 mi ESE 6.9 mph - N/A   Clear